Вернуться в каталог

STARLINK-33656

АктивенСвязьVLEO
NORAD 63389·PAYLOAD·🇺🇸 United States

Запущен Mar 26, 2025 с Vandenberg Space Force Base

Loading…

Ближайшие Пролёты (ближайшие 24 часа)

TLE

СвежийSource: CelesTrak SupGP

Эпоха: Sep 15, 2026, 03:43 UTC

1 63389C 25063AC  26258.15534722 -.00035131  00000+0 -11297-2 0  2581
2 63389  53.1580 250.9276 0001318  84.5083  88.3259 15.31718926    14

Отслеживайте STARLINK-33656 в реальном времени с AllMySat

Download on the App Store